www.pogodaiklimat.ru

Погода и климат >> Архив погоды >> Узбекистан >> Денау


ПОГОДА в Денау

  • Прогноз погоды в Денау
  • Монитор погоды в Денау

АРХИВ ПОГОДЫ в Денау

Время (UTC), дата Ветер
(напр.,м/с)
 
Видим.   Явления Облачность Т
(С)
Тd
(С)
f
(%)
Тe
(С)
Тes
(С)
Комфортность P
(гПа)
Po
(гПа)
Тmin
(С)
Tmax
(С)
R
(мм)
R24
(мм)
S
(см)
06 12.06 ЮВ 2 10 км 4/0 1500 м
[Ac trans]
+27.4 +6.5 27 +27 +42 жарко 1012.8 955.1 +17.2
09 12.06 В 1 10 км 3/0 1500 м
[Ac trans]
+29.6 +6.4 23 +28 +46 жарко 1011.1 953.8
12 12.06 Ю 1 10 км 3/0 1500 м
[Ac trans]
+30.2 +8.6 26 +30 +35 жарко 1009.7 952.7
21 12.06 ЮЗ 1 н/о ясно +20.4 +8.9 48 +23 +23 комфорт 1011.5 952.5
00 13.06 ЮЗ 1 50 км ясно +18.8 +8.6 51 +20 +20 1011.3 952.0
03 13.06 Ю 1 50 км ясно +21.8 +10.0 47 +23 +31 комфорт 1009.9 951.3
06 13.06 В 1 50 км ясно +29.2 +10.2 31 +29 +51 опасность
солнечного
удара
1007.3 950.1 +18.8
09 13.06 С 1 50 км ясно +32.0 +6.8 21 +30 +52 опасность
солнечного
удара
1004.5 947.9
12 13.06 В 1 50 км ясно +33.4 +6.4 19 +31 +38 жарко 1004.2 946.1
15 13.06 В 1 50 км ясно +26.0 +14.7 50 +29 +29 душно 1003.6 946.0 +33.4
18 13.06 З 2 н/о 3/0
[Ac trans]
+23.4 +11.8 48 +26 +26 жарко 1004.5 946.4 +33.4
21 13.06 ЮЗ 2 н/о 3/0
[Ac trans]
+21.4 +9.8 48 +23 +23 комфорт 1005.4 946.8
00 14.06 ЮВ 1 50 км 6/0
[Ac trans]
+18.8 +10.0 57 +21 +21 комфорт 1005.8 946.7
03 14.06 В 1 50 км 3/0
[Ac trans]
+23.6 +11.1 45 +25 +31 комфорт 1005.2 947.1
06 14.06 С 1 50 км 3/0
[As op]
+31.0 +20.5 54 +38 +55 опасность
солнечного
удара
1003.6 947.0 +18.8
09 14.06 С 1 50 км 3/0
[As op]
+37.0 +19.3 36 +42 +58 опасность
перегрева
1000.7 945.3
12 14.06 В 1 50 км ясно +38.0 +22.5 41 +47 +54 опасность
перегрева
999.9 944.7
15 14.06 С 1 50 км 3/0
[Ac trans]
+27.2 +14.0 44 +29 +29 жарко 1003.1 945.9 +38.0
18 14.06 СВ 1 н/о 3/0
[Ac trans]
+24.4 +13.6 51 +27 +27 жарко 1005.1 947.2 +38.0
21 14.06 В 1 н/о ясно +22.8 +10.0 44 +25 +25 комфорт 1005.9 947.7
00 15.06 В 2 50 км ясно +22.0 +9.4 45 +24 +24 комфорт 1005.7 947.3
03 15.06 СЗ 2 50 км ясно +24.2 +10.0 41 +25 +31 комфорт 1006.0 948.0
06 15.06 СВ 1 50 км 4/0
[Ac trans]
+31.4 +11.7 30 +32 +48 жарко 1004.7 948.1 +22.0
09 15.06 СВ 1 10 км 4/0 1500 м
[Ac trans]
+32.8 +5.9 19 +31 +47 жарко 1006.4 949.9
12 15.06 С 1 50 км 3/0
[As op]
+33.4 +6.4 19 +31 +37 жарко 1005.1 948.8
15 15.06 В 1 50 км ясно +30.0 +8.8 27 +29 +29 жарко 1006.3 949.4 +33.4
18 15.06 В 1 н/о ясно +26.0 +10.3 37 +27 +27 жарко 1007.9 950.2 +33.4
21 15.06 В 1 н/о ясно +24.0 +9.8 41 +25 +25 комфорт 1009.6 951.4
00 16.06 В 1 50 км ясно +23.0 +9.3 42 +25 +25 комфорт 1009.5 951.1
03 16.06 С 1 50 км ясно +26.1 +11.3 40 +27 +35 жарко 1008.3 950.7
06 16.06 ЮВ 2 50 км ясно +32.4 +9.0 24 +31 +50 жарко 1007.1 950.5 +23.0
12 16.06 В 1 50 км ясно +36.0 +9.8 20 +35 +42 очень
жарко
1004.6 948.7
15 16.06 В 1 50 км ясно +26.4 +16.4 54 +30 +30 душно 1006.2 948.5 +36.0
18 16.06 ЮВ 1 н/о ясно +23.2 +13.8 55 +27 +27 душно 1006.9 948.6 +36.0
21 16.06 ЮЗ 2 н/о ясно +22.2 +13.4 57 +25 +25 комфорт 1007.5 949.0
00 17.06 З 2 50 км ясно +22.0 +13.5 59 +25 +25 комфорт 1006.2 947.7
03 17.06 В 2 50 км ясно +25.0 +10.3 40 +26 +32 жарко 1005.8 948.0
09 17.06 В 2 50 км 3/0
[Ac trans]
+35.0 +7.7 19 +33 +48 жарко 1002.8 947.0
15 17.06 С 1 50 км ясно +28.0 +15.2 46 +31 +31 душно 1002.3 945.3 +35.0
18 17.06 С 1 н/о ясно +24.0 +12.1 47 +26 +26 жарко 1004.1 946.2 +35.0
21 17.06 В 2 н/о ясно +23.0 +8.8 40 +24 +24 комфорт 1004.1 946.0
00 18.06 ЮЗ 2 50 км ясно +21.4 +8.0 42 +22 +22 комфорт 1004.1 945.7
03 18.06 В 1 50 км ясно +21.4 +11.8 54 +23 +31 комфорт 1004.1 946.3
09 18.06 СВ 1 50 км ясно +38.0 +22.5 41 +47 +68 опасность
перегрева
1000.0 944.5

 

Местоположение метеостанции Денау (Сухрандарьинская область, Узбекистан): широта 38.27 долгота 67.90 высота над уровнем моря 520 м.

В архиве по умолчанию представлена погода в Денау за последнюю неделю. Архивные данные за месяц целиком и за предыдущие месяцы, начиная с января 2011 года, Вы можете получить, выбрав интересующий диапазон дат из раскрывающегося списка и нажав кнопку "Ввод!".


*Определитесь, кто Вы:
робот инопланетянин человек

Внимание! Время в таблицах - всемирное. Для получения местного времени необходимо прибавить поправку, которая равна 5 ч.

Смотрите также архив погоды в соседних городах и на ближайших метеорологических станциях:

Погода в Шурчи (Сухрандарьинская область, Узбекистан) (31 км)
Погода в Байсуне (Сухрандарьинская область, Узбекистан) (62 км)
Погода в Ганжине (Таджикистан) (69 км)
Погода в Исанбай (Таджикистан) (74 км)
Погода в Душанбе (Таджикистан) (83 км)
Погода в Курган-Тюбе (Таджикистан) (92 км)
Погода в Акрабате (Узбекистан) (93 км)
Погода в Минчукуре (Кашкадарьинская область, Узбекистан) (94 км)
Погода в Искандекуле (Таджикистан) (101 км)
Погода в Ширабаде (Сухрандарьинская область, Узбекистан) (102 км)

Пояснения к столбцам:

Ветер - указаны скорость ветра в м/с - средняя за 10 мин, порывы в срок и между сроками (в фигурных скобках) и направление, откуда дует ветер: С - северный, СВ - северо-восточный, В - восточный, ЮВ - юго-восточный, Ю - южный, ЮЗ - юго-западный, З - западный, СЗ - северо-западный.
Видимость - горизонтальная дальность видимости в метрах или километрах. При видимости от 1 до 10 км при отсутствии осадков обычно наблюдается дымка, при ухудшении видимости до 1 км и менее - туман. В сухую погоду видимость может ухудшаться дымом, пылью или мглою.
Явления - указаны атмосферные явления, наблюдавшиеся в срок или в последний час перед сроком; фигурными скобками обозначены явления, наблюдавшиеся между сроками (за 1-3 часа до срока); квадратными скобками обозначены град или гололедные отложения с указанием их диаметра в мм.
Облачность - указаны через наклонную черту общая и нижняя облачность в баллах и высота нижней границы облаков в метрах; квадратными скобками обозначены формы облаков: Ci - перистые, Cs - перисто-слоистые, Cc - перисто-кучевые, Ac - высококучевые, As - высокослоистые, Sc - слоисто-кучевые, Ns - слоисто-дождевые, Cu - кучевые, Cb - кучево-дождевые. Подробнее классификацию облаков см. в Атласе облаков (PDF).
T - Температура воздуха - температура, измеренная на высоте 2 м над землей.
Td - Температура точки росы - температура, при понижении до которой содержащийся в воздухе водяной пар достигнет насыщения.
f - Относительная влажность воздуха - влажноcть воздуха, измеренная на высоте 2 м над землей.
Te - Эффективная температура - температура, которую ощущает одетый по сезону человек в тени. Характеристика душности погоды. При расчете учитывается влияние влажности воздуха и скорости ветра на теплоощущения человека.
Tes - Эффективная температура на солнце - температура, которую ощущает человек, с поправкой на солнечный нагрев. Характеристика знойности погоды. Зависит от высоты солнца над горизонтом, облачности и скорости ветра. Ночью, в пасмурную погоду, а также при ветре 12 м/с и более поправка равна нулю.
P - Атмосферное давление - приведенное к уровню моря атмосферное давление.
Po - Атмосферное давление - измеренное на уровне метеостанции атмосферное давление.
Tmin - Минимальная температура - минимум температуры воздуха на высоте 2 м над землей.
Tmax - Максимальная температура - максимум температуры воздуха на высоте 2 м над землей.
R - Количество осадков - Количество выпавших осадков за период времени, мм. При наведении курсора мыши на число - период времени, за который выпало указанное количество осадков.
R24 - Количество осадков - Количество выпавших осадков за 24 часа, мм.
S - Снежный покров - Высота снежного покрова, см. При наведении курсора мыши на число - состояние снежного покрова и степень покрытия местности в баллах.